Frederick, OK

10:31 AM CDT on April 27, 2017 (GMT -0500)
Frederick Municipal

Weather History for KFDR - November, 2012

Change the Weather History Date:

Thursday, November 15, 2012

  Actual Average (KLTS) Record (KLTS)
Temperature  
Mean Temperature 49 °F -  
Max Temperature 64 °F 60 °F 80 °F (2016)
Min Temperature 34 °F 38 °F 26 °F (1997)
Degree Days  
Heating Degree Days 16    
Moisture  
Dew Point 32 °F    
Average Humidity 55    
Maximum Humidity 67    
Minimum Humidity 43    
Precipitation  
Precipitation 0.00 in - - ()
Sea Level Pressure  
Sea Level Pressure 30.22 in    
Wind  
Wind Speed 8 mph (SE)    
Max Wind Speed 12 mph    
Max Gust Speed 17 mph    
Visibility 10 miles    
Events      
Averages and records for this station are not official NWS values.
T = Trace of Precipitation, MM = Missing Value Source: NWS Daily Summary

Daily Weather History Graph

Daily Weather History Graph

Search for Another Location

Airport or City:

Trip Planner

Search our weather history database for the weather conditions in past years. The results will help you decide how hot, cold, wet, or windy it might be!

Date:

Astronomy

Nov. 15, 2012 Rise Set
Actual Time 7:09 AM CST 5:31 PM CST
Civil Twilight 6:42 AM CST 5:58 PM CST
Nautical Twilight 6:12 AM CST 6:28 PM CST
Astronomical Twilight 5:42 AM CST 6:58 PM CST
Moon 9:03 AM CST (11/15) 7:27 PM CST (11/15)
Length of Visible Light 11h 15m
Length of Day
10h 21m
Waxing Crescent, 5% of the Moon is Illuminated
Nov 15
Waxing Crescent
Nov 20
First Quarter
Nov 28
Full
Dec 6
Last Quarter
Dec 13
New

Hourly Weather History & Observations

Time (CST) Temp. Windchill Dew Point Humidity Pressure Visibility Wind Dir Wind Speed Gust Speed Precip Events Conditions
12:53 AM 37.0 °F 32.4 °F 23.0 °F 57% 30.21 in 10.0 mi SE 5.8 mph - N/A   Clear
1:53 AM 37.0 °F 31.6 °F 23.0 °F 57% 30.20 in 10.0 mi SSE 6.9 mph - N/A   Clear
2:53 AM 36.0 °F 30.3 °F 23.0 °F 59% 30.20 in 10.0 mi South 6.9 mph - N/A   Clear
3:53 AM 34.0 °F 28.8 °F 21.9 °F 61% 30.19 in 10.0 mi ESE 5.8 mph - N/A   Clear
4:53 AM 34.0 °F 29.8 °F 23.0 °F 64% 30.19 in 10.0 mi East 4.6 mph - N/A   Clear
5:53 AM 36.0 °F 30.3 °F 24.1 °F 62% 30.19 in 10.0 mi East 6.9 mph - N/A   Clear
6:53 AM 35.1 °F 29.3 °F 24.1 °F 64% 30.22 in 10.0 mi East 6.9 mph - N/A   Clear
7:53 AM 37.0 °F 31.6 °F 27.0 °F 67% 30.22 in 10.0 mi ESE 6.9 mph - N/A   Clear
8:53 AM 42.1 °F 37.1 °F 28.9 °F 60% 30.23 in 10.0 mi SSE 8.1 mph - N/A   Clear
9:53 AM 48.0 °F - 28.9 °F 48% 30.24 in 10.0 mi South 8.1 mph - N/A   Clear
10:53 AM 52.0 °F - 32.0 °F 47% 30.23 in 10.0 mi South 8.1 mph - N/A   Clear
11:53 AM 57.0 °F - 36.0 °F 45% 30.22 in 10.0 mi South 8.1 mph - N/A   Clear
12:53 PM 61.0 °F - 39.0 °F 44% 30.19 in 10.0 mi South 10.4 mph 17.3 mph N/A   Clear
1:53 PM 64.0 °F - 41.0 °F 43% 30.16 in 10.0 mi South 10.4 mph - N/A   Clear
2:53 PM 64.0 °F - 41.0 °F 43% 30.15 in 10.0 mi SSE 10.4 mph - N/A   Clear
3:53 PM 63.0 °F - 42.1 °F 46% 30.17 in 10.0 mi SSE 9.2 mph - N/A   Clear
4:53 PM 64.0 °F - 43.0 °F 46% 30.18 in 10.0 mi SE 8.1 mph - N/A   Clear
5:53 PM 55.0 °F - 39.9 °F 57% 30.20 in 10.0 mi East 9.2 mph - N/A   Clear
6:53 PM 52.0 °F - 39.0 °F 61% 30.23 in 10.0 mi ESE 11.5 mph - N/A   Clear
7:53 PM 50.0 °F - 37.0 °F 61% 30.26 in 10.0 mi East 10.4 mph - N/A   Clear
8:53 PM 48.0 °F - 37.0 °F 66% 30.27 in 10.0 mi ENE 10.4 mph - N/A   Mostly Cloudy
9:53 PM 48.9 °F - 35.1 °F 59% 30.29 in 10.0 mi East 9.2 mph - N/A   Scattered Clouds
10:53 PM 48.0 °F - 33.1 °F 56% 30.30 in 10.0 mi East 9.2 mph - N/A   Mostly Cloudy
11:53 PM 46.9 °F - 33.1 °F 59% 30.30 in 10.0 mi East 8.1 mph - N/A   Overcast